カタログに戻る

AURORA 1

運用中通信PO
NORAD 2876·PAYLOAD·🇺🇸 United States

打ち上げ Jun 29, 1967 から Vandenberg Space Force Base

Loading…

次のパス (今後24時間)

TLE

最新Source: Space-Track

元期: Sep 14, 2026, 14:11 UTC

1 02876U 67065B   26257.59130620  .00000012  00000-0  64271-2 0  9990
2 02876  89.9742 313.2070 0070194  21.4198 338.9554  8.36560232397085

AllMySatでAURORA 1をリアルタイム追跡

Download on the App Store